Ashland, WI

7:20 PM CDT on July 25, 2017 (GMT -0500)
Kennedy Memorial

Weather History for KASX - October, 2012

Change the Weather History Date:

Tuesday, October 23, 2012

  Actual Average Record
Temperature  
Mean Temperature 49 °F -  
Max Temperature 57 °F 54 °F 80 °F (1963)
Min Temperature 46 °F 33 °F 14 °F (1976)
Degree Days  
Heating Degree Days 16    
Moisture  
Dew Point 47 °F    
Average Humidity 94    
Maximum Humidity 100    
Minimum Humidity 87    
Precipitation  
Precipitation 0.08 in - - ()
Sea Level Pressure  
Sea Level Pressure 29.87 in    
Wind  
Wind Speed 7 mph (NE)    
Max Wind Speed 12 mph    
Max Gust Speed -    
Visibility 4 miles    
Events Rain , Thunderstorm    
Averages and records for this station are not official NWS values.
T = Trace of Precipitation, MM = Missing Value Source: NWS Daily Summary

Daily Weather History Graph

Daily Weather History Graph

Search for Another Location

Airport or City:

Trip Planner

Search our weather history database for the weather conditions in past years. The results will help you decide how hot, cold, wet, or windy it might be!

Date:

Astronomy

Oct. 23, 2012 Rise Set
Actual Time 7:33 AM CDT 6:01 PM CDT
Civil Twilight 7:02 AM CDT 6:32 PM CDT
Nautical Twilight 6:26 AM CDT 7:08 PM CDT
Astronomical Twilight 5:52 AM CDT 7:42 PM CDT
Moon 3:04 PM CDT (10/23) 1:04 AM CDT (10/23)
Length of Visible Light 11h 30m
Length of Day
10h 28m
Waxing Gibbous, 67% of the Moon is Illuminated
Oct 23
Waxing Gibbous
Oct 29
Full
Nov 6
Last Quarter
Nov 13
New
Nov 20
First Quarter

Hourly Weather History & Observations

Time (CDT) Temp. Windchill Dew Point Humidity Pressure Visibility Wind Dir Wind Speed Gust Speed Precip Events Conditions
12:24 AM 46.4 °F 42.9 °F 44.6 °F 93% 30.02 in 10.0 mi NE 6.9 mph - N/A   Overcast
12:38 AM 46.4 °F 42.9 °F 44.6 °F 93% 30.01 in 10.0 mi ENE 6.9 mph - N/A   Mostly Cloudy
1:53 AM 46.9 °F - 44.1 °F 90% 30.02 in 10.0 mi NE 9.2 mph - N/A   Overcast
2:53 AM 46.9 °F - 45.0 °F 93% 30.00 in 10.0 mi ENE 9.2 mph - N/A   Overcast
3:05 AM 46.4 °F 42.4 °F 44.6 °F 93% 29.98 in 10.0 mi ENE 8.1 mph - N/A   Overcast
3:53 AM 48.0 °F - 45.0 °F 89% 29.99 in 9.0 mi NNE 8.1 mph - N/A   Overcast
4:30 AM 48.2 °F - 44.6 °F 87% 29.95 in 10.0 mi NE 9.2 mph - N/A Thunderstorm Overcast
4:45 AM 48.2 °F - 44.6 °F 87% 29.95 in 10.0 mi NE 9.2 mph - N/A   Overcast
4:53 AM 48.0 °F - 45.0 °F 89% 29.97 in 10.0 mi NE 9.2 mph - N/A   Overcast
5:44 AM 48.2 °F - 44.6 °F 87% 29.94 in 10.0 mi ENE 11.5 mph - N/A   Overcast
5:51 AM 48.2 °F - 44.6 °F 87% 29.95 in 10.0 mi ENE 8.1 mph - N/A Thunderstorm Overcast
5:53 AM 48.0 °F - 45.0 °F 89% 29.96 in 10.0 mi ENE 10.4 mph - N/A Thunderstorm Overcast
6:53 AM 48.0 °F - 46.0 °F 93% 29.95 in 9.0 mi NE 8.1 mph - 0.00 in   Overcast
7:29 AM 48.2 °F - 46.4 °F 93% 29.92 in 6.0 mi NE 9.2 mph - 0.00 in Rain Light Rain
7:53 AM 48.0 °F - 46.0 °F 93% 29.94 in 5.0 mi ENE 10.4 mph - 0.00 in Rain Light Rain
8:39 AM 48.2 °F - 46.4 °F 93% 29.92 in 4.0 mi ENE 9.2 mph - 0.00 in Rain , Thunderstorm Light Rain
8:53 AM 48.0 °F - 46.0 °F 93% 29.93 in 5.0 mi ENE 10.4 mph - 0.00 in Rain , Thunderstorm Light Thunderstorms and Rain
9:07 AM 48.2 °F - 46.4 °F 93% 29.91 in 2.5 mi ENE 8.1 mph - 0.00 in Rain , Thunderstorm Thunderstorms and Rain
9:15 AM 48.2 °F - 46.4 °F 93% 29.90 in 6.0 mi NE 8.1 mph - 0.00 in Rain , Thunderstorm Light Thunderstorms and Rain
9:53 AM 48.0 °F - 46.9 °F 96% 29.91 in 7.0 mi NE 9.2 mph - N/A Rain , Thunderstorm Light Thunderstorms and Rain
10:53 AM 48.0 °F - 46.9 °F 96% 29.92 in 4.0 mi NE 9.2 mph - N/A Rain Light Rain
11:40 AM 48.2 °F - 46.4 °F 93% 29.88 in 1.8 mi ENE 10.4 mph - 0.00 in   Overcast
11:53 AM 48.9 °F - 48.0 °F 97% 29.90 in 1.5 mi ENE 9.2 mph - 0.00 in   Overcast
12:40 PM 48.2 °F - 48.2 °F 100% 29.87 in 2.0 mi ENE 8.1 mph - N/A   Overcast
1:37 PM 50.0 °F - 48.2 °F 94% 29.83 in 3.0 mi ENE 8.1 mph - N/A   Overcast
1:53 PM 50.0 °F - 48.9 °F 96% 29.85 in 4.0 mi ENE 6.9 mph - N/A   Overcast
2:09 PM 50.0 °F - 48.2 °F 94% 29.83 in 2.5 mi East 5.8 mph - N/A   Overcast
2:26 PM 50.0 °F - 50.0 °F 100% 29.82 in 1.5 mi ENE 5.8 mph - N/A   Overcast
2:53 PM 51.1 °F - 50.0 °F 96% 29.84 in 1.8 mi NNE 4.6 mph - N/A   Overcast
3:01 PM 51.8 °F - 50.0 °F 94% 29.82 in 2.5 mi NNE 4.6 mph - N/A   Overcast
3:41 PM 51.8 °F - 50.0 °F 94% 29.80 in 0.8 mi ENE 6.9 mph - N/A   Mist
3:53 PM 51.1 °F - 50.0 °F 96% 29.81 in 0.8 mi NE 5.8 mph - N/A   Mist
4:53 PM 51.1 °F - 50.0 °F 96% 29.80 in 0.8 mi Calm Calm - 0.02 in Rain Light Rain
5:32 PM 48.2 °F - 48.2 °F 100% 29.79 in 1.8 mi North 4.6 mph - 0.05 in Rain Light Rain
5:36 PM 50.0 °F - 48.2 °F 94% 29.79 in 2.5 mi North 3.5 mph - 0.05 in   Overcast
5:50 PM 48.2 °F - 48.2 °F 100% 29.79 in 1.0 mi North 3.5 mph - 0.05 in   Overcast
5:53 PM 48.9 °F - 48.0 °F 97% 29.81 in 0.8 mi North 3.5 mph - 0.05 in   Overcast
6:03 PM 48.2 °F - 48.2 °F 100% 29.79 in 0.8 mi North 3.5 mph - 0.01 in Rain Light Rain
6:10 PM 48.2 °F - 48.2 °F 100% 29.78 in 1.0 mi NNE 3.5 mph - 0.01 in   Overcast
6:23 PM 48.2 °F - 48.2 °F 100% 29.78 in 1.8 mi Calm Calm - 0.01 in   Overcast
6:29 PM 50.0 °F - 48.2 °F 94% 29.78 in 3.0 mi Calm Calm - 0.01 in   Overcast
6:40 PM 50.0 °F - 48.2 °F 94% 29.78 in 2.5 mi Calm Calm - 0.01 in   Overcast
6:51 PM 50.0 °F - 48.2 °F 94% 29.78 in 3.0 mi Calm Calm - 0.01 in   Overcast
6:53 PM 50.0 °F - 48.9 °F 96% 29.80 in 3.0 mi Calm Calm - 0.01 in   Overcast
6:58 PM 50.0 °F - 48.2 °F 94% 29.79 in 2.5 mi Calm Calm - N/A   Overcast
7:01 PM 50.0 °F - 48.2 °F 94% 29.79 in 1.8 mi Calm Calm - N/A   Overcast
7:11 PM 50.0 °F - 48.2 °F 94% 29.79 in 0.8 mi Calm Calm - N/A   Overcast
7:18 PM 50.0 °F - 48.2 °F 94% 29.79 in 0.8 mi Calm Calm - 0.00 in Rain Light Rain
7:53 PM 50.0 °F - 48.9 °F 96% 29.81 in 1.2 mi Calm Calm - 0.00 in   Overcast
8:10 PM 50.0 °F - 48.2 °F 94% 29.79 in 3.0 mi Calm Calm - 0.00 in Rain Light Rain
8:53 PM 51.1 °F - 48.9 °F 92% 29.81 in 4.0 mi Calm Calm - 0.00 in   Overcast
9:53 PM 51.1 °F - 50.0 °F 96% 29.80 in 4.0 mi Calm Calm - N/A   Overcast
10:53 PM 52.0 °F - 50.0 °F 93% 29.81 in 4.0 mi Calm Calm - N/A   Overcast
11:53 PM 53.1 °F - 51.1 °F 93% 29.81 in 5.0 mi South 3.5 mph - N/A   Overcast